Location: Erba
(45.8000°N, 9.2500°E)
Time: 11:21:12
(UTC+01:00)

ISS - Visible Passes

Search period start: 16 January 2019 00:00
Search period end: 26 January 2019 00:00
Orbit: 404 x 407 km, 51.6° (Epoch: 16 January)

Date Brightness Start Highest point End Pass type
(mag) Time Alt. Az. Time Alt. Az. Time Alt. Az.
21 Jan -1.3 18:43:49 10° SSE 18:44:20 11° SE 18:44:20 11° SE visible
22 Jan -1.9 19:26:01 10° SW 19:27:36 24° SSW 19:27:36 24° SSW visible
23 Jan -2.5 18:34:34 10° SSW 18:37:19 25° SE 18:38:04 23° ESE visible
23 Jan -0.5 20:10:23 10° WSW 20:10:45 13° WSW 20:10:45 13° WSW visible
24 Jan -1.6 17:43:39 10° S 17:45:33 15° SE 17:47:27 10° E visible
24 Jan -3.4 19:18:20 10° WSW 19:21:08 62° WSW 19:21:08 62° WSW visible
25 Jan -3.5 18:26:29 10° SW 18:29:41 53° SE 18:31:26 23° ENE visible
25 Jan -0.8 20:03:11 10° W 20:04:07 17° WNW 20:04:07 17° WNW visible
